Regional Weather Roundup
Issued by NWS

Home | Current Version | Previous Version | Text Only | Print | Product List | Glossary Off
Versions: 1 2 3 4 5 6 7 8 9 10 11 12 13 14 15 16 17 18 19 20 21 22 23 24 25 26 27 28 29 30 31 32 33 34 35 36 37 38 39 40 41 42 43 44 45 46 47 48 49 50

000
ASUS43 KTOP 291608
RWRKS

WEATHER ROUNDUP FOR KANSAS
NATIONAL WEATHER SERVICE GOODLAND KS
1100 AM CDT SAT AUG 29 2015

NOTE:  "FAIR" INDICATES FEW OR NO CLOUDS BELOW 12,000 FEET WITH NO
SIGNIFICANT WEATHER AND/OR OBSTRUCTIONS TO VISIBILITY.

KSZ001>006-013>018-027>032-041>047-291700-
NORTHWEST KANSAS

CITY           SKY/WX    TMP DP  RH WIND       PRES   REMARKS
GOODLAND       SUNNY     79  55  43 VRB5      30.21S
HAYS           SUNNY     75  57  53 N14       30.11S
HILL CITY      SUNNY     77  62  59 N9        30.14S
RUSSELL        SUNNY     73  62  68 N15       30.10R
$$

KSZ061>065-074>080-084>089-291700-
SOUTHWEST KANSAS

CITY           SKY/WX    TMP DP  RH WIND       PRES   REMARKS
DODGE CITY     SUNNY     74  61  63 N12       30.16R
ELKHART          N/A     74  63  69 N3          N/A
GARDEN CITY    SUNNY     74  62  66 N7        30.17R
GREAT BEND     SUNNY     73  61  64 N14       30.10S
LIBERAL        SUNNY     75  64  69 NE9       30.18R
PRATT          MOSUNNY   73  61  64 N14       30.11S
$$

KSZ066>073-081>083-090>101-291700-
SOUTHEAST KANSAS

CITY           SKY/WX    TMP DP  RH WIND       PRES   REMARKS
CHANUTE        SUNNY     76  64  66 N9        30.03R
COFFEYVILLE    PTSUNNY   76  69  79 N12       30.01R
HUTCHINSON     CLOUDY    71  62  73 N10G18    30.08R
MEDICINE LODGE   N/A     78  63  59 N14       30.07S
NEWTON         CLOUDY    66  57  72 N13       30.10R
PARSONS        PTSUNNY   76  68  76 N7        30.03S
WICHITA INTL   CLOUDY    73  62  68 N14       30.06R
WICHITA JABRA  CLOUDY    68  62  81 N8        30.07R
WICHITA MCCONL MOSUNNY   71  60  67 N13       30.06R
$$

KSZ007>012-019>026-033>040-048>060-102>105-291700-
NORTHEAST KANSAS

CITY           SKY/WX    TMP DP  RH WIND       PRES   REMARKS
CONCORDIA      CLOUDY    62  59  90 N10       30.09R
EMPORIA        CLOUDY    69  62  78 N6        30.05R
LAWRENCE       CLOUDY    72  64  76 VRB3      30.03R
MANHATTAN      CLOUDY    67  62  84 VRB6      30.06R
MARYSVILLE     CLOUDY   N/A N/A N/A N8        30.08R
OLATHE IND     CLOUDY    70  66  87 N3        30.03R
OLATHE EXE     CLOUDY    69  66  90 CALM      30.02R
SALINA         CLOUDY    67  60  78 N13       30.09R
TOPEKA BILLARD CLOUDY    67  65  93 N7        30.04R FOG
TOPEKA FORBES  LGT RAIN  68  63  84 N7        30.05R
$$



USA.gov is the U.S. government's official web portal to all federal, state and local government web resources and services.